Regional Weather Roundup
Issued by NWS

Home | Current Version | Previous Version | Graphics & Text | Print | Product List | Glossary On
Versions: 1 2 3 4 5 6 7 8 9 10 11 12 13 14 15 16 17 18 19 20 21 22 23 24 25 26 27 28 29 30 31 32 33 34 35 36 37 38 39 40 41 42 43 44 45 46 47 48 49 50
351
ASUS43 KMKX 280211
RWRWI

WISCONSIN REGIONAL WEATHER ROUNDUP
NATIONAL WEATHER SERVICE MILWAUKEE/SULLIVAN WI
800 PM CST MON FEB 27 2017

NOTE: "FAIR" INDICATES FEW OR NO CLOUDS BELOW 12,000 FEET WITH NO
SIGNIFICANT WEATHER AND/OR OBSTRUCTIONS TO VISIBILITY.

WIZ001-002-006>008-014>016-023>028-280300-
NORTHWEST WISCONSIN

CITY           SKY/WX    TMP DP  RH WIND       PRES   REMARKS
SUPERIOR ARPT  CLOUDY    29  27  90 E7        29.92S WCI  22
ASHLAND        PTCLDY    24  22  91 CALM      29.94S
HAYWARD        PTCLDY    36  18  48 S7        29.91F WCI  30
SIREN          CLOUDY    37  19  49 S9        29.89F WCI  30
CUMBERLAND     CLOUDY    32  21  64 SE3       29.90F
RICE LAKE      CLOUDY    34  23  63 SE8       29.92F WCI  27
CHETEK         CLOUDY    31  22  70 CALM      29.92F
LADYSMITH      CLOUDY    32  21  62 E6        29.94F WCI  27
EAU CLAIRE     CLOUDY    37  21  52 SE8       29.92F WCI  31
MENOMONIE      PTCLDY    33  22  63 E3        29.92F
NEW RICHMOND   PTCLDY    35  22  60 SE5       29.90S WCI  31
OSCEOLA        CLOUDY    37  23  57 SE7       29.92S WCI  32
$$

WIZ003>005-009-010-017-018-280300-
NORTH CENTRAL WISCONSIN

CITY           SKY/WX    TMP DP  RH WIND       PRES   REMARKS
MANITOWISH WTR MOCLDY    31  17  57 SE6       29.93F WCI  25
ARBOR VITAE    CLEAR     32  18  57 SE5         N/A  WCI  27
WOODRUFF       CLEAR     32  18  57 SE5         N/A  WCI  27
RHINELANDER    CLEAR     33  17  51 SE6       29.97S WCI  28
EAGLE RIVER    PTCLDY    30  16  55 SE3       29.96S
LAND O LAKES   MOCLDY    31  18  56 S3        29.97S
PHILLIPS       MOCLDY    32  18  57 SE3       29.93S
TOMAHAWK       CLEAR     28  17  64 CALM      29.96F
MEDFORD        CLEAR     33  19  56 S9        29.95S WCI  25
MERRILL        NOT AVBL
$$

WIZ029-030-035-036-043>047-280300-
CENTRAL WISCONSIN

CITY           SKY/WX    TMP DP  RH WIND       PRES   REMARKS
WAUSAU         PTCLDY    34  24  67 SE6       29.98S WCI  29
MOSINEE        NOT AVBL
MARSHFIELD     MOCLDY    35  26  69 SE5       29.96F WCI  31
STEVENS POINT  CLEAR     29  25  84 CALM      30.00F
WAUPACA        CLEAR     35  29  80 E5        30.03S WCI  31
WAUTOMA        PTCLDY    30  28  92 CALM      30.02F
WISC RAPIDS    CLEAR     34  28  79 SE7       30.00F WCI  28
CAMP DOUGLAS   MOCLDY    32  27  80 SE3       29.97F
$$

WIZ011>013-019>022-031-037>040-048>050-280300-
NORTHEAST WISCONSIN

CITY           SKY/WX    TMP DP  RH WIND       PRES   REMARKS
ANTIGO         CLEAR     28  22  77 SE8       30.00S WCI  20
SHAWANO        MOCLDY    35  29  79 CALM      30.04S
OCONTO         CLOUDY    33  29  87 CALM      30.06S
STURGEON BAY   PTCLDY    34  32  92 S7        30.07S WCI  28
GREEN BAY      PTCLDY    33  31  92 CALM      30.05S
MANITOWOC      CLOUDY    36  33  89 S7        30.07S WCI  30
APPLETON       PTCLDY    36  28  75 E3        30.02S
CLINTONVILLE   CLEAR     32  28  86 SE3       30.04S
OSHKOSH        PTCLDY    34  30  85 S3        30.02F
$$

WIZ032>034-041-042-053>061-280300-
SOUTHWEST WISCONSIN

CITY           SKY/WX    TMP DP  RH WIND       PRES   REMARKS
LA CROSSE      MOCLDY    42  31  64 E8        29.93F
SPARTA         PTCLDY    35  29  80 E5        29.97S WCI  31
VIROQUA        PTCLDY    38  32  78 SE10      29.94F WCI  31
BOSCOBEL       MOCLDY    36  31  82 CALM      29.96F
PRAIRIE DU CHI CLOUDY    43  31  61 SE6       29.94F
PLATTEVILLE    CLOUDY    40  33  76 E9        29.97F WCI  35
$$

WIZ056-057-062-063-064-067-068-280300-
SOUTH CENTRAL WISCONSIN

CITY           SKY/WX    TMP DP  RH WIND       PRES   REMARKS
REEDSBURG      PTCLDY    37  32  83 CALM      29.98F
BARABOO/DELLS  MOCLDY    39  30  70 SE6       29.99F WCI  35
LONE ROCK      PTCLDY    38  31  76 E8        29.98F WCI  32
MINERAL POINT  CLOUDY    43  32  65 SE7       29.97F
MADISON        MOCLDY    37  29  72 CALM      30.01S
MIDDLETON      PTCLDY    35  32  89 CALM      30.01S
WATERTOWN      PTCLDY    38  32  79 E7        30.03S WCI  32
MONROE         PTCLDY    43  32  65 SE9       29.99S
JANESVILLE     MOCLDY    43  34  70 SE5       30.01F
$$

WIZ051-052-058>065-066-070>072-280300-
SOUTHEAST WISCONSIN

CITY           SKY/WX    TMP DP  RH WIND       PRES   REMARKS
MILWAUKEE      PTCLDY    40  32  73 S5        30.06S
WAUKESHA       CLOUDY    37  32  81 SE6       30.06S WCI  33
MILWAUKEE/TIMM CLEAR     41  30  65 S7        30.06S
RACINE         PTCLDY    42  33  70 S10       30.07F
KENOSHA        PTCLDY    41  33  73 SE9       30.06S
FOND DU LAC    CLEAR     37  29  72 SE6       30.03S WCI  32
SHEBOYGAN      CLOUDY    33  30  88 CALM      30.05F FOG
WEST BEND      CLOUDY    36  32  87 CALM      30.05S
JUNEAU         CLOUDY    37  32  79 SE8       30.04S WCI  31
$$

LSZ147-162-280300-
LAKE SUPERIOR

STATION/POSITION TIME  TEMP    WIND        PRES    WAVE
                       AIR SEA DIR/SP/G            HT/PER
                 (UTC) (F)     (DEG/KT/KT) (MB)    (FT/S)
DEVILS ISLAND    0200   30     100/ 10/ 10 1014.7F
PORT WING        0140   29      60/  4/  5 1013.2S
SAXON HARBOR     0040   29     200/  1/  2 1013.9R
$$

LMZ867-665-643>646-280300-
LAKE MICHIGAN

STATION/POSITION TIME  TEMP    WIND        PRES    WAVE
                       AIR SEA DIR/SP/G            HT/PER
                 (UTC) (F)     (DEG/KT/KT) (MB)    (FT/S)
CHAMBERS ISLAND  0140   34     150/  5/  8 1017.9R
NORTHPORT PIER   0140   35     160/  4/  8 1018.3R
SISTER BAY       0135   35     160/ 11/ 14   N/A
KEWAUNEE LAKESHO 0148   36     170/  6/  7 1017.8S
SHEBOYGAN LAKESH 0200   37     180/  7/  8 1018.5F
PORT WASHINGTON  0140   38     180/  5/  7 1019.0S
MILWAUKEE LAKESH 0150   39      90/  2/  3   N/A
KENOSHA   LAKESH 0200   41     180/  9/ 11 1017.9
$$

TC  - TEMPERATURE IN CELSIUS
VSB - VISIBILITY IN STATUTE MILES
WCI - WIND CHILL INDEX
HX  - HEAT INDEX





USA.gov is the U.S. government's official web portal to all federal, state and local government web resources and services.